Regional Weather Roundup
Issued by NWS Cleveland, OH

Home | Current Version | Previous Version | Text Only | Print | Product List | Glossary Off
Versions: 1 2 3 4 5 6 7 8 9 10 11 12 13 14 15 16 17 18 19 20 21 22 23 24 25 26 27 28 29 30 31 32 33 34 35 36 37 38 39 40 41 42 43 44 45 46 47 48 49 50

000
ASUS41 KCLE 261300
RWRCLE
OHIO REGIONAL WEATHER ROUNDUP
NATIONAL WEATHER SERVICE WILMINGTON, OH
900 AM EDT SAT JUL 26 2014

NOTE: "FAIR" INDICATES FEW OR NO CLOUDS BELOW 12,000 FEET WITH NO
SIGNIFICANT WEATHER AND/OR OBSTRUCTIONS TO VISIBILITY.

OHZ001>008-015>018-024>027-034-035-043-044-261400-
   NORTHWEST OHIO

CITY           SKY/WX    TMP DP  RH WIND       PRES   REMARKS
DEFIANCE       SUNNY     69  60  73 S6        29.93S
FINDLAY        SUNNY     71  60  68 S9        29.94S
TOLEDO EXPRESS SUNNY     68  59  73 S6        29.92F
TOLEDO METCALF MOSUNNY   70  59  68 S6        29.94S
LIMA           SUNNY     71  61  70 S9        29.95S
$$

OHZ009>014-019>023-028>033-038-089-261400-
   NORTHEAST OHIO

CITY           SKY/WX    TMP DP  RH WIND       PRES   REMARKS
CLE-HOPKINS    SUNNY     71  60  68 SW8       29.97F
CLE-LAKEFRONT  SUNNY     73  60  63 S9        29.94F
CUY CO. ARPT   SUNNY     72  61  68 SW8       29.97S
LORAIN-ELYRIA  SUNNY     72  60  66 SW7       29.96F
ASHTABULA      SUNNY     68  59  73 S6        29.98F
AKRON-CANTON   SUNNY     71  60  68 SW7       29.98S
WOOSTER        NOT AVBL
MANSFIELD      SUNNY     71  60  68 S7        29.98S
YOUNGSTOWN     MOSUNNY   67  60  78 S7        29.99S
$$

OHZ042-051>053-060>062-070>072-077>081-261400-
  SOUTHWEST OHIO

CITY           SKY/WX    TMP DP  RH WIND       PRES   REMARKS
CINC-COVINGTON PTSUNNY   70  62  76 S5        29.99R
CINC-LUNKEN    PTSUNNY   71  63  75 S6        29.99R
HAMILTON       PTSUNNY   72  65  78 CALM      29.98R
DAYTON         NOT AVBL
WRIGHT-PAT AFB MOSUNNY   70  62  76 S7        29.97R
DAYTON GENERAL PTSUNNY   70  63  78 S9        29.97R
WILMINGTON     PTSUNNY   70  62  76 S8        29.99R
$$

OHZ036-037-039>041-045>050-054>059-063>069-073>076-082>088-261400-
  CENTRAL AND SOUTHEAST OHIO

CITY           SKY/WX    TMP DP  RH WIND       PRES   REMARKS
COLUMBUS       MOSUNNY   73  60  63 S6        29.97S
OSU AIRPORT    SUNNY     72  62  71 S10       29.97S
BOLTON FIELD   SUNNY     70  64  83 S5        29.98S
RICKENBACK AFB NOT AVBL
NEWARK         SUNNY     72  61  68 S7        29.98S
MARION         PTSUNNY   68  61  78 S8        29.97R
LANCASTER      SUNNY     72  62  71 S7        29.99S
ZANESVILLE     SUNNY     70  61  73 S7        29.99S
NEW PHILLY     SUNNY     70  63  78 SE3       29.99S
$$


USA.gov is the U.S. government's official web portal to all federal, state and local government web resources and services.